| time (UTC) | temp F | wind direction | speed MPH | gust MPH | rain 1hr in | rain 24hr in | rain mn in | humidity % | barometer mb |
| 20260503054404 | 60 | 165 | 3.0 | 5.0 | 0.00 | 0.00 | 0.00 | 48 | 1018.5 |
| 20260503053404 | 60 | 168 | 1.0 | 3.0 | 0.00 | 0.00 | 0.00 | 47 | 1018.4 |
| 20260503052904 | 60 | 166 | 1.0 | 3.0 | 0.00 | 0.00 | 0.00 | 47 | 1018.5 |
| 20260503051905 | 61 | 166 | 2.0 | 3.0 | 0.00 | 0.00 | 0.00 | 47 | 1018.4 |
| 20260503051404 | 61 | 166 | 2.0 | 5.0 | 0.00 | 0.00 | 0.00 | 46 | 1018.4 |
| 20260503050904 | 61 | 167 | 1.0 | 5.0 | 0.00 | 0.00 | 0.00 | 46 | 1018.4 |
| 20260503050403 | 61 | 167 | 1.0 | 3.0 | 0.00 | 0.00 | 0.00 | 46 | 1018.4 |
| 20260503045904 | 61 | 167 | 1.0 | 3.0 | 0.00 | 0.00 | 0.00 | 45 | 1018.4 |
| 20260503045404 | 61 | 167 | 1.0 | 3.0 | 0.00 | 0.00 | 0.00 | 45 | 1018.4 |
| 20260503044904 | 62 | 167 | 1.0 | 3.0 | 0.00 | 0.00 | 0.00 | 45 | 1018.4 |
| 20260503044404 | 62 | 167 | 2.0 | 3.0 | 0.00 | 0.00 | 0.00 | 45 | 1018.4 |
| 20260503043904 | 62 | 167 | 1.0 | 3.0 | 0.00 | 0.00 | 0.00 | 44 | 1018.4 |
| 20260503043404 | 62 | 167 | 2.0 | 3.0 | 0.00 | 0.00 | 0.00 | 45 | 1018.4 |
| 20260503042904 | 62 | 167 | 1.0 | 3.0 | 0.00 | 0.00 | 0.00 | 44 | 1018.4 |
| 20260503042404 | 63 | 167 | 1.0 | 3.0 | 0.00 | 0.00 | 0.00 | 44 | 1018.4 |
| 20260503041904 | 63 | 167 | 1.0 | 5.0 | 0.00 | 0.00 | 0.00 | 44 | 1018.4 |
| 20260503041404 | 63 | 167 | 2.0 | 3.0 | 0.00 | 0.00 | 0.00 | 44 | 1018.4 |
| 20260503040904 | 63 | 167 | 2.0 | 5.0 | 0.00 | 0.00 | 0.00 | 44 | 1018.5 |
| 20260503035904 | 63 | 169 | 4.0 | 6.0 | 0.00 | 0.00 | 0.00 | 44 | 1018.5 |
| 20260503035404 | 64 | 167 | 3.0 | 5.0 | 0.00 | 0.00 | 0.00 | 44 | 1018.4 |
| 20260503034904 | 64 | 167 | 2.0 | 5.0 | 0.00 | 0.00 | 0.00 | 44 | 1018.4 |
| 20260503034405 | 64 | 167 | 2.0 | 5.0 | 0.00 | 0.00 | 0.00 | 45 | 1018.3 |
| 20260503033904 | 64 | 163 | 3.0 | 5.0 | 0.00 | 0.00 | 0.00 | 44 | 1018.4 |
| 20260503033403 | 64 | 164 | 3.0 | 5.0 | 0.00 | 0.00 | 0.00 | 45 | 1018.3 |
| 20260503032904 | 64 | 151 | 2.0 | 3.0 | 0.00 | 0.00 | 0.00 | 43 | 1018.3 |
| 20260503032403 | 64 | 152 | 2.0 | 3.0 | 0.00 | 0.00 | 0.00 | 43 | 1018.3 |
| 20260503031904 | 64 | 151 | 2.0 | 3.0 | 0.00 | 0.00 | 0.00 | 43 | 1018.3 |
| 20260503031404 | 64 | 150 | 1.0 | 3.0 | 0.00 | 0.00 | 0.00 | 42 | 1018.2 |
| 20260503030904 | 64 | 150 | 2.0 | 3.0 | 0.00 | 0.00 | 0.00 | 42 | 1018.1 |
| 20260503030408 | 65 | 151 | 2.0 | 3.0 | 0.00 | 0.00 | 0.00 | 42 | 1018.1 |
| 20260503025904 | 65 | 144 | 2.0 | 3.0 | 0.00 | 0.00 | 0.00 | 41 | 1018.1 |
| 20260503025404 | 65 | 139 | 1.0 | 3.0 | 0.00 | 0.00 | 0.00 | 41 | 1018.1 |
| 20260503024904 | 65 | 139 | 2.0 | 3.0 | 0.00 | 0.00 | 0.00 | 41 | 1018.1 |
| 20260503024403 | 65 | 135 | 3.0 | 3.0 | 0.00 | 0.00 | 0.00 | 40 | 1018.0 |
| 20260503023904 | 66 | 133 | 1.0 | 3.0 | 0.00 | 0.00 | 0.00 | 39 | 1018.0 |
| 20260503023404 | 66 | 133 | 2.0 | 3.0 | 0.00 | 0.00 | 0.00 | 38 | 1018.0 |
| 20260503022903 | 66 | 134 | 2.0 | 3.0 | 0.00 | 0.00 | 0.00 | 38 | 1017.9 |
| 20260503022404 | 66 | 134 | 2.0 | 3.0 | 0.00 | 0.00 | 0.00 | 37 | 1017.9 |
| 20260503021404 | 67 | 134 | 1.0 | 3.0 | 0.00 | 0.00 | 0.00 | 37 | 1017.7 |
| 20260503020904 | 67 | 134 | 2.0 | 3.0 | 0.00 | 0.00 | 0.00 | 36 | 1017.7 |
| 20260503020404 | 68 | 134 | 2.0 | 3.0 | 0.00 | 0.00 | 0.00 | 36 | 1017.7 |
| 20260503015904 | 68 | 134 | 2.0 | 3.0 | 0.00 | 0.00 | 0.00 | 35 | 1017.6 |
| 20260503015404 | 68 | 134 | 2.0 | 3.0 | 0.00 | 0.00 | 0.00 | 36 | 1017.6 |
| 20260503014903 | 69 | 134 | 1.0 | 3.0 | 0.00 | 0.00 | 0.00 | 34 | 1017.6 |
| 20260503014404 | 69 | 111 | 1.0 | 3.0 | 0.00 | 0.00 | 0.00 | 34 | 1017.6 |
| 20260503013404 | 70 | 111 | 1.0 | 2.0 | 0.00 | 0.00 | 0.00 | 33 | 1017.5 |
| 20260503012903 | 70 | 111 | 1.0 | 2.0 | 0.00 | 0.00 | 0.00 | 32 | 1017.5 |
| 20260503012404 | 71 | 111 | 1.0 | 2.0 | 0.00 | 0.00 | 0.00 | 32 | 1017.5 |
| 20260503011404 | 71 | 111 | 1.0 | 3.0 | 0.00 | 0.00 | 0.00 | 32 | 1017.4 |
| 20260503010904 | 72 | 27 | 0.0 | 1.0 | 0.00 | 0.00 | 0.00 | 33 | 1017.3 |
| 20260503010404 | 72 | 27 | 0.0 | 0.0 | 0.00 | 0.00 | 0.00 | 31 | 1017.3 |
| 20260503005904 | 72 | 27 | 1.0 | 2.0 | 0.00 | 0.00 | 0.00 | 31 | 1017.2 |
| 20260503005403 | 73 | 27 | 0.0 | 0.0 | 0.00 | 0.00 | 0.00 | 29 | 1017.2 |
| 20260503004903 | 73 | 27 | 0.0 | 0.0 | 0.00 | 0.00 | 0.00 | 28 | 1017.2 |
| 20260503004405 | 73 | 27 | 0.0 | 0.0 | 0.00 | 0.00 | 0.00 | 28 | 1017.1 |
| 20260503003904 | 73 | 27 | 0.0 | 0.0 | 0.00 | 0.00 | 0.00 | 28 | 1017.1 |
| 20260503003403 | 73 | 27 | 0.0 | 0.0 | 0.00 | 0.00 | 0.00 | 28 | 1017.0 |
| 20260503002403 | 74 | 27 | 1.0 | 2.0 | 0.00 | 0.00 | 0.00 | 27 | 1017.0 |
| 20260503000904 | 74 | 27 | 0.0 | 0.0 | 0.00 | 0.00 | 0.00 | 26 | 1016.9 |
| 20260502235904 | 75 | 27 | 1.0 | 2.0 | 0.00 | 0.00 | 0.00 | 28 | 1017.0 |
| 20260502235404 | 75 | 27 | 0.0 | 0.0 | 0.00 | 0.00 | 0.00 | 26 | 1017.1 |
| 20260502234904 | 75 | 27 | 0.0 | 2.0 | 0.00 | 0.00 | 0.00 | 24 | 1017.1 |
| 20260502234404 | 75 | 27 | 1.0 | 3.0 | 0.00 | 0.00 | 0.00 | 24 | 1017.1 |
| 20260502233904 | 76 | 336 | 0.0 | 0.0 | 0.00 | 0.00 | 0.00 | 24 | 1017.1 |
| 20260502233404 | 76 | 336 | 1.0 | 2.0 | 0.00 | 0.00 | 0.00 | 25 | 1017.2 |
| 20260502232904 | 76 | 336 | 2.0 | 5.0 | 0.00 | 0.00 | 0.00 | 25 | 1017.3 |
| 20260502232404 | 76 | 14 | 2.0 | 5.0 | 0.00 | 0.00 | 0.00 | 25 | 1017.2 |
| 20260502231904 | 76 | 346 | 3.0 | 5.0 | 0.00 | 0.00 | 0.00 | 26 | 1017.2 |
| 20260502231404 | 77 | 333 | 3.0 | 8.0 | 0.00 | 0.00 | 0.00 | 24 | 1017.3 |
| 20260502230906 | 77 | 32 | 2.0 | 5.0 | 0.00 | 0.00 | 0.00 | 25 | 1017.3 |
| 20260502230403 | 77 | 351 | 3.0 | 5.0 | 0.00 | 0.00 | 0.00 | 23 | 1017.3 |
| 20260502225408 | 77 | 15 | 4.0 | 7.0 | 0.00 | 0.00 | 0.00 | 26 | 1017.4 |
| 20260502224903 | 77 | 290 | 3.0 | 3.0 | 0.00 | 0.00 | 0.00 | 23 | 1017.3 |
| 20260502224404 | 77 | 11 | 2.0 | 5.0 | 0.00 | 0.00 | 0.00 | 25 | 1017.4 |
| 20260502223904 | 77 | 50 | 3.0 | 8.0 | 0.00 | 0.00 | 0.00 | 24 | 1017.4 |
| 20260502223404 | 77 | 358 | 5.0 | 9.0 | 0.00 | 0.00 | 0.00 | 23 | 1017.5 |
| 20260502222904 | 77 | 279 | 2.0 | 10.0 | 0.00 | 0.00 | 0.00 | 25 | 1017.5 |
| 20260502221904 | 78 | 271 | 2.0 | 7.0 | 0.00 | 0.00 | 0.00 | 23 | 1017.6 |
| 20260502221403 | 78 | 323 | 0.0 | 5.0 | 0.00 | 0.00 | 0.00 | 22 | 1017.5 |
| 20260502220404 | 78 | 346 | 5.0 | 8.0 | 0.00 | 0.00 | 0.00 | 23 | 1017.6 |
| 20260502215904 | 78 | 252 | 2.0 | 6.0 | 0.00 | 0.00 | 0.00 | 25 | 1017.6 |
| 20260502215404 | 78 | 249 | 2.0 | 5.0 | 0.00 | 0.00 | 0.00 | 24 | 1017.7 |
| 20260502214903 | 78 | 271 | 3.0 | 7.0 | 0.00 | 0.00 | 0.00 | 26 | 1017.7 |
| 20260502214404 | 78 | 11 | 2.0 | 9.0 | 0.00 | 0.00 | 0.00 | 25 | 1017.8 |
| 20260502213903 | 78 | 298 | 2.0 | 8.0 | 0.00 | 0.00 | 0.00 | 24 | 1017.8 |
| 20260502212904 | 78 | 282 | 5.0 | 8.0 | 0.00 | 0.00 | 0.00 | 25 | 1017.9 |
| 20260502211904 | 77 | 277 | 2.0 | 8.0 | 0.00 | 0.00 | 0.00 | 26 | 1018.0 |
| 20260502210904 | 76 | 311 | 4.0 | 9.0 | 0.00 | 0.00 | 0.00 | 25 | 1018.2 |
| 20260502210404 | 76 | 320 | 3.0 | 7.0 | 0.00 | 0.00 | 0.00 | 28 | 1018.3 |
| 20260502205904 | 76 | 39 | 2.0 | 8.0 | 0.00 | 0.00 | 0.00 | 28 | 1018.3 |
| 20260502205404 | 76 | 71 | 3.0 | 8.0 | 0.00 | 0.00 | 0.00 | 27 | 1018.4 |
| 20260502204904 | 76 | 248 | 4.0 | 8.0 | 0.00 | 0.00 | 0.00 | 25 | 1018.4 |
| 20260502204403 | 76 | 340 | 2.0 | 10.0 | 0.00 | 0.00 | 0.00 | 25 | 1018.4 |
| 20260502203404 | 76 | 342 | 5.0 | 9.0 | 0.00 | 0.00 | 0.00 | 25 | 1018.5 |
| 20260502201903 | 76 | 278 | 6.0 | 10.0 | 0.00 | 0.00 | 0.00 | 26 | 1018.7 |
| 20260502201404 | 76 | 35 | 3.0 | 10.0 | 0.00 | 0.00 | 0.00 | 27 | 1018.7 |
| 20260502200903 | 76 | 303 | 5.0 | 10.0 | 0.00 | 0.00 | 0.00 | 29 | 1018.8 |
| 20260502200403 | 76 | 334 | 6.0 | 10.0 | 0.00 | 0.00 | 0.00 | 26 | 1018.9 |
| 20260502195904 | 75 | 276 | 2.0 | 9.0 | 0.00 | 0.00 | 0.00 | 29 | 1018.9 |
| 20260502195403 | 75 | 296 | 5.0 | 8.0 | 0.00 | 0.00 | 0.00 | 27 | 1019.0 |
| 20260502194904 | 75 | 306 | 4.0 | 8.0 | 0.00 | 0.00 | 0.00 | 25 | 1019.1 |
| 20260502194404 | 75 | 283 | 5.0 | 10.0 | 0.00 | 0.00 | 0.00 | 26 | 1019.2 |
| 20260502193904 | 75 | 333 | 7.0 | 12.0 | 0.00 | 0.00 | 0.00 | 26 | 1019.2 |
| 20260502193403 | 75 | 346 | 5.0 | 9.0 | 0.00 | 0.00 | 0.00 | 26 | 1019.2 |
| 20260502192404 | 75 | 351 | 7.0 | 13.0 | 0.00 | 0.00 | 0.00 | 26 | 1019.3 |
| 20260502191903 | 75 | 347 | 3.0 | 9.0 | 0.00 | 0.00 | 0.00 | 25 | 1019.4 |
| 20260502191404 | 75 | 348 | 3.0 | 12.0 | 0.00 | 0.00 | 0.00 | 26 | 1019.5 |
| 20260502190904 | 75 | 338 | 3.0 | 12.0 | 0.00 | 0.00 | 0.00 | 26 | 1019.6 |
| 20260502190404 | 74 | 339 | 8.0 | 15.0 | 0.00 | 0.00 | 0.00 | 26 | 1019.6 |
| 20260502185904 | 74 | 280 | 6.0 | 10.0 | 0.00 | 0.00 | 0.00 | 25 | 1019.6 |
| 20260502185403 | 74 | 340 | 2.0 | 12.0 | 0.00 | 0.00 | 0.00 | 25 | 1019.7 |
| 20260502184904 | 74 | 339 | 7.0 | 13.0 | 0.00 | 0.00 | 0.00 | 24 | 1019.7 |
| 20260502184409 | 74 | 316 | 5.0 | 8.0 | 0.00 | 0.00 | 0.00 | 24 | 1019.8 |
| 20260502183403 | 74 | 285 | 6.0 | 9.0 | 0.00 | 0.00 | 0.00 | 21 | 1019.9 |
| 20260502182903 | 74 | 291 | 6.0 | 10.0 | 0.00 | 0.00 | 0.00 | 22 | 1020.0 |
| 20260502182403 | 74 | 263 | 7.0 | 10.0 | 0.00 | 0.00 | 0.00 | 21 | 1020.0 |
| 20260502181904 | 74 | 285 | 7.0 | 12.0 | 0.00 | 0.00 | 0.00 | 24 | 1020.1 |
| 20260502181404 | 73 | 342 | 7.0 | 10.0 | 0.00 | 0.00 | 0.00 | 25 | 1020.1 |
| 20260502180903 | 73 | 286 | 5.0 | 10.0 | 0.00 | 0.00 | 0.00 | 21 | 1020.2 |
| 20260502180404 | 73 | 242 | 2.0 | 7.0 | 0.00 | 0.00 | 0.00 | 27 | 1020.2 |
| 20260502170405 | 70 | 326 | 4.0 | 12.0 | 0.00 | 0.00 | 0.00 | 30 | 1020.9 |
| 20260502163905 | 69 | 317 | 6.0 | 12.0 | 0.00 | 0.00 | 0.00 | 29 | 1021.0 |
| 20260502163405 | 69 | 315 | 8.0 | 12.0 | 0.00 | 0.00 | 0.00 | 30 | 1021.0 |
| 20260502162905 | 69 | 299 | 7.0 | 10.0 | 0.00 | 0.00 | 0.00 | 31 | 1020.9 |
| 20260502162405 | 69 | 280 | 6.0 | 10.0 | 0.00 | 0.00 | 0.00 | 33 | 1020.9 |
| 20260502161405 | 69 | 245 | 3.0 | 7.0 | 0.00 | 0.00 | 0.00 | 35 | 1020.9 |
| 20260502160904 | 68 | 298 | 5.0 | 8.0 | 0.00 | 0.00 | 0.00 | 35 | 1020.9 |
| 20260502160405 | 68 | 279 | 7.0 | 9.0 | 0.00 | 0.00 | 0.00 | 35 | 1020.9 |
| 20260502151905 | 65 | 276 | 0.0 | 7.0 | 0.00 | 0.00 | 0.00 | 47 | 1020.8 |
| 20260502151405 | 65 | 272 | 4.0 | 7.0 | 0.00 | 0.00 | 0.00 | 48 | 1020.8 |
| 20260502150905 | 64 | 309 | 3.0 | 6.0 | 0.00 | 0.00 | 0.00 | 47 | 1020.7 |
| 20260502150405 | 64 | 307 | 2.0 | 7.0 | 0.00 | 0.00 | 0.00 | 47 | 1020.6 |
| 20260502130405 | 57 | 287 | 3.0 | 7.0 | 0.00 | 0.00 | 0.00 | 62 | 1019.8 |
| 20260502123405 | 55 | 310 | 3.0 | 3.0 | 0.00 | 0.00 | 0.00 | 65 | 1019.2 |
| 20260502122906 | 55 | 314 | 2.0 | 3.0 | 0.00 | 0.00 | 0.00 | 65 | 1019.0 |
| 20260502122405 | 54 | 313 | 0.0 | 2.0 | 0.00 | 0.00 | 0.00 | 65 | 1019.1 |
| 20260502121905 | 54 | 324 | 2.0 | 3.0 | 0.00 | 0.00 | 0.00 | 65 | 1019.0 |
| 20260502121405 | 54 | 328 | 2.0 | 3.0 | 0.00 | 0.00 | 0.00 | 66 | 1018.9 |
| 20260502120905 | 54 | 347 | 3.0 | 5.0 | 0.00 | 0.00 | 0.00 | 65 | 1018.9 |
| 20260502120405 | 53 | 350 | 2.0 | 3.0 | 0.00 | 0.00 | 0.00 | 65 | 1018.7 |
| 20260502115905 | 53 | 286 | 2.0 | 6.0 | 0.00 | 0.00 | 0.00 | 65 | 1018.6 |
| 20260502115405 | 53 | 293 | 2.0 | 3.0 | 0.00 | 0.00 | 0.00 | 65 | 1018.7 |
| 20260502114905 | 53 | 279 | 2.0 | 3.0 | 0.00 | 0.00 | 0.00 | 65 | 1018.6 |
| 20260502113905 | 53 | 292 | 2.0 | 3.0 | 0.00 | 0.00 | 0.00 | 65 | 1018.4 |
| 20260502113405 | 53 | 291 | 3.0 | 3.0 | 0.00 | 0.00 | 0.00 | 65 | 1018.3 |
| 20260502112905 | 53 | 300 | 3.0 | 6.0 | 0.00 | 0.00 | 0.00 | 65 | 1018.2 |
| 20260502111905 | 53 | 252 | 1.0 | 3.0 | 0.00 | 0.00 | 0.00 | 64 | 1018.1 |
| 20260502111404 | 53 | 258 | 2.0 | 3.0 | 0.00 | 0.00 | 0.00 | 64 | 1017.9 |
| 20260502110905 | 53 | 269 | 2.0 | 3.0 | 0.00 | 0.00 | 0.00 | 64 | 1017.9 |
| 20260502105906 | 53 | 263 | 2.0 | 3.0 | 0.00 | 0.00 | 0.00 | 64 | 1018.2 |
| 20260502105405 | 53 | 250 | 2.0 | 3.0 | 0.00 | 0.00 | 0.00 | 64 | 1018.1 |
| 20260502104904 | 53 | 249 | 2.0 | 3.0 | 0.00 | 0.00 | 0.00 | 64 | 1018.0 |
| 20260502103405 | 53 | 292 | 1.0 | 2.0 | 0.00 | 0.00 | 0.00 | 64 | 1017.7 |
| 20260502102905 | 53 | 291 | 2.0 | 3.0 | 0.00 | 0.00 | 0.00 | 64 | 1017.6 |
| 20260502102408 | 53 | 290 | 2.0 | 3.0 | 0.00 | 0.00 | 0.00 | 64 | 1017.5 |
| 20260502101905 | 54 | 287 | 2.0 | 3.0 | 0.00 | 0.00 | 0.00 | 64 | 1017.5 |
| 20260502100905 | 53 | 299 | 2.0 | 3.0 | 0.00 | 0.00 | 0.00 | 65 | 1017.6 |
| 20260502100406 | 53 | 307 | 2.0 | 6.0 | 0.00 | 0.00 | 0.00 | 65 | 1017.6 |
| 20260502091406 | 53 | 253 | 1.0 | 2.0 | 0.00 | 0.00 | 0.00 | 64 | 1017.4 |
| 20260502090905 | 53 | 262 | 0.0 | 2.0 | 0.00 | 0.00 | 0.00 | 64 | 1017.4 |
| 20260502090405 | 53 | 262 | 2.0 | 3.0 | 0.00 | 0.00 | 0.00 | 64 | 1017.5 |
| 20260502071405 | 54 | 0 | 0.0 | 0.0 | 0.00 | 0.00 | 0.00 | 63 | 1017.4 |
| 20260502070904 | 54 | 41 | 0.0 | 0.0 | 0.00 | 0.00 | 0.00 | 63 | 1017.4 |
| 20260502070405 | 54 | 30 | 0.0 | 0.0 | 0.00 | 0.00 | 0.00 | 63 | 1017.5 |
| 20260502064404 | 54 | 52 | 1.0 | 2.0 | 0.00 | 0.00 | 0.00 | 62 | 1017.7 |
| 20260502063905 | 54 | 66 | 1.0 | 2.0 | 0.00 | 0.00 | 0.00 | 61 | 1017.8 |
| 20260502063405 | 54 | 40 | 1.0 | 2.0 | 0.00 | 0.00 | 0.00 | 61 | 1017.7 |
| 20260502062905 | 54 | 55 | 1.0 | 2.0 | 0.00 | 0.00 | 0.00 | 61 | 1017.7 |
| 20260502062404 | 54 | 47 | 0.0 | 0.0 | 0.00 | 0.00 | 0.00 | 60 | 1017.7 |